This is the latest recevied weather packets stored in our database for station/object N0KTA-2. If no packets are shown the sender has not sent any weather packets the latest 10 day(s).
| Time | Temp. | Humidity | Pressure | Rain* | Wind** | Luminosity | Snow |
|---|---|---|---|---|---|---|---|
| 1788615049 | 26.67° C | 70% | 1008.2 hPa | 0 mm | - | - | - |
| 1788614449 | 26.67° C | 70% | 1008.1 hPa | 0 mm | - | - | - |
| 1788613850 | 26.11° C | 72% | 1008.1 hPa | 0 mm | - | - | - |
| 1788613249 | 25.56° C | 73% | 1007.9 hPa | 0 mm | - | - | - |
| 1788612650 | 25° C | 73% | 1008 hPa | 0 mm | - | - | - |
| 1788612049 | 25° C | 74% | 1007.9 hPa | 0 mm | - | - | - |
| 1788611449 | 25° C | 74% | 1007.9 hPa | 0 mm | - | - | - |
| 1788610850 | 25° C | 74% | 1007.9 hPa | 0 mm | - | - | - |
| 1788610249 | 25° C | 74% | 1007.6 hPa | 0 mm | - | - | - |
| 1788609649 | 25° C | 74% | 1007.3 hPa | 0 mm | - | - | - |
| 1788609050 | 25° C | 73% | 1007.3 hPa | 0 mm | - | - | - |
| 1788608449 | 25.56° C | 72% | 1007.3 hPa | 0 mm | - | - | - |
| 1788607850 | 25.56° C | 71% | 1007.3 hPa | 0 mm | - | - | - |
| 1788607250 | 25.56° C | 71% | 1007.3 hPa | 0 mm | - | - | - |
| 1788606649 | 25.56° C | 72% | 1007.3 hPa | 0 mm | - | - | - |
| 1788606078 | 25.56° C | 71% | 1007.1 hPa | 0 mm | - | - | - |
| 1788605449 | 25.56° C | 71% | 1007.2 hPa | 0 mm | - | - | - |
| 1788604849 | 26.11° C | 71% | 1007.2 hPa | 0 mm | - | - | - |
| 1788604250 | 26.11° C | 71% | 1007.2 hPa | 0 mm | - | - | - |
| 1788603649 | 25.56° C | 71% | 1007.2 hPa | 0 mm | - | - | - |
| 1788603050 | 26.11° C | 71% | 1007.3 hPa | 0 mm | - | - | - |
| 1788602449 | 26.11° C | 71% | 1007.2 hPa | 0 mm | - | - | - |
| 1788601850 | 26.11° C | 71% | 1007.4 hPa | 0 mm | - | - | - |
| 1788601250 | 26.11° C | 70% | 1007.3 hPa | 0 mm | - | - | - |
| 1788600650 | 26.67° C | 69% | 1007.3 hPa | 0 mm | - | - | - |
* Rain latest hour (hover to see other rain measurements)
** Current wind speed in m/s (hover to see current wind gust speed)